Flag for U.S.A. Weather past 2 weeks in Peoria, Illinois, U.S.A.

Now
65 °F

Light rain. Fog.


Feels Like: 65 °F
Forecast: 61 / 74 °F
Wind: 7 mph from North

Location: Greater Peoria Regional Airport

Current Time: Jul 7, 2015 at 8:17:54 AM

Latest Report: Jul 7, 2015 at 7:54 AM


Visibility: 2 mi

Pressure: 29.91 "Hg

Humidity: 87%

Dew point: 61 °F

Location of PeoriaLocation

Historic Weather in Peoria — Graph

°F

Peoria temperature yesterday

Maximum temperature yesterday: 89 °F (at 3:54 PM)
Minimum temperature yesterday: 70 °F (at 4:54 AM)
Average temperature yesterday: 79 °F

Past Weeks' High & Low Weather Summary

 TemperatureHumidityPressure
High89 °F (Jun 22, 3:54 PM)90% (Jun 25, 3:54 AM)30.21 "Hg (Jun 25, 3:54 AM)
Low60 °F (Jul 2, 4:54 AM)39% (Jun 23, 2:54 PM)29.75 "Hg (Jun 29, 2:54 AM)
Average73 °F72%29.94 "Hg
* Reported Jun 22 6:54 AM — Jul 7 6:54 AM, Peoria, Weather by CustomWeather, © 2015

Note: Actual official high and low records may vary slightly from our data, if they occured in-between our weather recording intervals... More about our weather records

Advertising

Peoria weather history for previous 24 hours

 ConditionsComfort  
Time TempWeatherWind HumidityBarometerVisibility
6:54 AM
Tue, Jul 7
65 °FRain. Fog.8 mph87%29.90 "Hg2 mi
6:01 AM67 °FLight rain. Fog.8 mph87%29.91 "Hg3 mi
4:54 AM70 °FLight rain. Fog.6 mph87%29.88 "Hg2 mi
3:54 AM73 °FOvercast.5 mph90%29.84 "Hg10 mi
2:54 AM73 °FPassing clouds.3 mph90%29.85 "Hg10 mi
1:54 AM73 °FLight rain. Passing clouds.3 mph90%29.84 "Hg10 mi
12:54 AM74 °FLight rain. Fog.No wind88%29.84 "Hg5 mi
11:54 PM
Mon, Jul 6
74 °FLight rain. Partly cloudy.5 mph88%29.85 "Hg8 mi
11:04 PM74 °FLight rain. Passing clouds.6 mph88%29.87 "Hg10 mi
9:54 PM79 °FLight rain. Mostly cloudy.7 mph82%29.86 "Hg5 mi
8:54 PM83 °FScattered clouds.15 mph68%29.85 "Hg10 mi
7:54 PM85 °FSunny.16 mph68%29.85 "Hg10 mi
6:54 PM86 °FSunny.12 mph65%29.81 "Hg10 mi
5:54 PM86 °FSunny.13 mph67%29.82 "Hg10 mi
4:54 PM88 °FPassing clouds.15 mph65%29.84 "Hg10 mi
3:54 PM89 °FPassing clouds.14 mph63%29.87 "Hg10 mi
2:54 PM87 °FPassing clouds.10 mph67%29.88 "Hg9 mi
2:02 PM86 °FBroken clouds.12 mph67%29.92 "Hg8 mi
1:54 PM86 °FScattered clouds.10 mph67%29.90 "Hg9 mi
12:54 PM86 °FPartly sunny.12 mph70%29.92 "Hg8 mi
11:54 AM85 °FScattered clouds.12 mph70%29.93 "Hg8 mi
10:54 AM83 °FPassing clouds.15 mph70%29.94 "Hg7 mi
9:54 AM80 °FBroken clouds.12 mph76%29.96 "Hg5 mi
8:54 AM76 °FHaze.12 mph80%29.96 "Hg4 mi
Weather by CustomWeather, © 2015

See weather overviewHow to use our weather pages